ECMWFNIL_500_rhum_030.txt.gz
RH
98 95 90 84 82 83 83 86 87 84 76 69 65 61 58 55 53 52 49 45 42 36 31 25 20 16 14 13 13 15 20 26 31 36 40 40 36 35 33 30 31 30
94 86 79 74 75 79 83 86 90 92 88 82 75 70 66 63 61 59 56 53 53 50 46 43 39 33 26 20 16 13 13 16 21 26 32 38 39 38 36 34 33 31
86 82 79 76 76 79 82 86 91 96 97 93 86 79 73 70 68 66 63 62 62 59 55 54 57 57 49 38 29 21 16 13 14 18 21 27 33 37 38 36 35 34
76 77 76 74 74 76 79 85 93 99 100 100 98 89 81 78 77 75 74 74 71 66 63 62 64 69 66 56 45 34 26 19 14 14 16 18 23 28 34 36 36 37
63 66 67 68 68 69 75 84 94 101 103 104 104 98 88 84 83 83 83 83 79 74 72 68 66 71 71 64 56 47 40 32 24 18 15 15 17 20 24 30 34 35
54 55 57 60 61 64 73 82 90 99 101 101 104 103 98 92 87 88 89 89 87 82 77 71 67 70 73 66 60 56 50 43 36 28 21 17 15 17 18 22 29 33
48 50 51 51 54 61 68 74 85 95 96 98 104 106 104 99 92 89 90 91 91 86 77 70 68 73 75 70 63 60 57 51 44 37 29 22 17 17 18 19 21 27
45 48 51 48 48 56 63 68 80 91 96 101 105 104 104 105 99 91 88 90 91 88 80 71 71 77 81 78 71 64 60 57 53 47 39 32 25 19 18 19 21 24
54 51 53 50 49 54 59 64 75 88 97 99 98 98 103 107 104 95 88 89 91 90 85 78 78 85 88 88 85 76 67 63 61 58 52 45 38 29 22 20 20 22
70 63 56 53 53 52 54 60 71 83 91 91 92 98 104 106 106 100 89 86 89 90 89 88 87 89 90 89 89 87 79 72 69 65 60 56 50 42 34 26 21 20
76 74 65 59 54 51 53 60 68 74 79 86 95 101 104 104 106 103 93 85 86 91 94 94 93 91 92 94 96 99 94 85 79 75 70 65 59 53 46 37 27 21
75 75 73 69 57 50 54 61 64 65 68 80 96 101 102 104 103 103 102 94 87 91 96 97 96 93 94 98 101 105 106 100 92 86 82 78 73 67 60 50 38 27
76 73 73 74 65 54 54 60 62 61 63 75 90 94 94 98 101 102 105 99 87 85 89 92 94 93 93 97 99 101 105 106 103 97 92 89 86 82 74 62 50 39
79 73 69 73 74 64 57 60 63 62 62 68 78 84 84 89 98 102 104 102 95 88 84 83 84 86 87 91 95 98 100 103 105 104 100 98 96 94 89 79 65 51
83 76 68 72 78 70 58 59 62 60 58 61 70 81 83 83 90 98 102 104 103 99 92 84 80 81 81 83 87 92 95 100 104 104 102 101 101 99 97 91 80 65
86 82 74 73 79 74 63 62 65 62 60 64 72 81 86 83 85 92 100 103 104 104 102 95 88 86 84 82 82 85 88 92 98 102 103 102 101 99 97 96 90 80
92 90 83 80 85 83 73 67 66 65 64 69 77 85 90 90 85 86 93 98 100 102 104 103 100 98 93 85 80 80 82 84 89 96 100 101 100 99 98 97 95 90
100 99 94 91 93 92 82 71 66 67 70 76 84 92 97 94 87 85 88 92 96 99 101 104 104 102 99 92 85 81 82 85 89 93 97 102 102 101 101 100 98 96
103 105 103 98 97 97 92 83 76 77 82 88 95 101 103 96 88 86 88 90 92 93 95 99 103 104 103 100 96 92 87 86 89 92 96 102 104 101 100 101 101 100
101 104 105 102 101 102 101 98 95 94 97 100 102 105 104 100 96 95 95 95 95 95 97 99 102 104 104 102 101 99 94 90 91 94 96 101 104 102 100 100 101 101
100 102 104 104 103 102 101 101 100 100 101 101 102 104 104 102 100 98 97 96 96 98 100 100 101 102 102 101 100 100 99 97 97 97 99 102 104 102 100 100 100 100
100 100 100 101 101 101 100 100 100 100 100 99 100 102 101 99 98 97 97 98 98 99 99 98 98 99 99 99 100 100 100 100 100 100 101 103 104 102 102 102 101 100
100 101 101 101 101 100 99 100 100 100 100 100 101 101 100 99 97 95 95 95 97 98 99 100 101 102 102 102 101 101 100 100 100 100 100 100 100 100 100 100 99 100
102 102 101 100 101 101 102 102 101 100 98 94 89 83 78 73 69 67 67 67 68 70 73 76 81 86 90 93 95 97 98 99 99 100 102 104 105 105 104 104 102 101
101 101 102 102 101 99 96 90 83 77 69 62 58 53 51 50 50 51 50 48 47 47 47 47 48 50 53 56 58 59 62 65 68 70 73 76 80 83 88 93 96 98
101 99 93 87 81 76 71 65 61 60 58 57 56 53 51 50 48 47 48 48 48 49 49 49 47 45 44 42 40 37 36 35 35 35 36 38 40 43 47 52 58 63

ECMWFNIL_500_rhum_033.txt.gz
RH
25 29 30 31 38 46 53 61 66 71 80 89 93 96 97 96 96 92 80 68 55 41 35 32 29 26 22 19 17 14 12 13 14 15 19 25 32 38 40 41 44 46
30 35 39 42 51 63 68 69 69 70 74 78 80 85 94 100 103 98 88 78 67 54 48 46 42 37 33 29 25 20 16 15 15 16 17 21 28 34 39 40 42 45
34 35 43 50 59 66 68 67 65 65 66 66 69 76 86 94 98 96 89 80 72 66 60 56 51 47 45 42 35 29 25 20 17 18 18 19 23 29 35 38 40 43
54 42 40 48 59 65 63 59 58 58 58 61 71 81 84 88 92 94 93 87 79 73 69 63 58 56 54 52 49 43 38 32 25 22 19 19 20 23 28 34 37 41
74 63 51 45 47 54 57 55 52 53 55 61 72 83 86 89 95 99 102 102 92 80 74 69 64 61 61 61 59 56 53 50 45 36 27 21 20 20 21 26 31 36
73 72 68 60 48 43 46 50 51 50 53 62 72 81 87 89 94 100 103 105 101 89 80 75 70 68 69 70 67 64 64 65 65 60 47 35 28 23 20 21 23 28
64 65 68 68 63 53 45 43 47 48 49 57 69 79 85 88 94 98 95 94 98 97 89 82 78 76 77 79 77 74 73 73 75 74 67 56 43 32 25 21 20 21
63 63 63 66 69 68 61 50 44 45 47 51 63 76 86 95 101 97 90 89 93 96 91 83 80 80 82 83 83 84 82 80 79 76 73 68 59 46 35 27 21 19
71 69 66 68 71 71 72 68 55 45 46 49 59 74 88 99 102 96 94 99 98 93 89 86 83 82 84 86 86 87 86 83 79 77 75 73 66 58 50 40 30 23
77 76 72 74 77 72 71 78 70 51 44 49 57 72 87 94 97 98 102 104 101 97 98 100 94 87 86 89 90 92 94 89 83 80 81 77 67 60 58 51 42 35
75 77 76 77 81 76 70 76 78 61 47 49 57 70 82 89 95 104 105 102 101 100 102 103 97 89 86 89 92 97 101 99 95 92 92 85 71 61 59 57 51 47
73 71 74 79 81 78 71 72 77 69 53 50 57 66 76 87 98 105 103 101 102 101 99 100 96 88 83 86 92 98 100 103 104 101 98 91 76 65 62 61 57 54
75 71 72 80 85 82 75 70 75 74 60 51 57 64 72 83 93 97 97 100 104 103 100 102 101 93 84 82 88 93 97 103 106 103 96 88 79 73 71 70 65 59
85 81 78 85 89 87 78 70 75 79 64 53 57 63 68 74 80 87 94 101 105 104 102 101 102 101 94 84 81 84 90 95 100 101 95 87 82 79 80 81 78 72
100 97 94 95 95 93 84 74 80 84 68 56 58 61 63 66 71 81 92 98 100 102 104 102 100 103 102 94 82 78 82 86 91 94 94 90 87 83 83 87 88 86
102 104 105 104 102 99 89 82 87 86 70 58 58 59 62 64 67 77 88 93 93 94 100 103 103 102 102 97 87 79 77 79 81 85 87 88 87 84 85 89 93 95
99 102 102 104 106 102 93 90 92 83 67 60 61 62 65 65 68 78 88 92 91 88 91 99 104 104 99 94 88 80 75 74 76 80 82 85 88 88 90 92 95 98
100 101 99 102 106 104 98 96 91 77 65 63 65 66 67 68 73 82 88 91 92 87 86 91 99 103 100 97 94 88 80 74 74 76 78 81 86 91 96 98 98 98
100 101 100 101 104 105 104 101 93 80 72 71 72 73 73 75 80 84 88 92 95 90 85 86 92 98 99 97 95 92 86 79 76 76 75 76 81 89 97 101 101 102
100 101 100 100 102 104 106 104 100 94 88 85 85 84 84 86 88 90 91 94 95 92 88 86 88 92 95 94 91 88 85 80 78 79 78 79 84 90 96 100 103 105
100 100 100 100 101 102 102 102 102 102 100 100 99 98 98 98 96 96 99 102 102 99 96 93 91 91 91 91 90 89 88 84 82 82 83 85 89 92 96 102 104 105
101 101 100 99 100 101 102 102 102 102 102 102 101 101 101 101 102 102 103 103 102 99 97 97 97 97 96 95 94 92 89 87 87 88 91 94 97 100 102 105 104 103
100 101 101 100 101 101 102 103 104 104 104 103 102 103 103 102 104 104 102 100 98 97 98 99 99 99 100 100 101 98 93 91 93 97 101 103 104 105 104 102 101 100
102 102 101 99 98 96 94 93 92 91 89 88 86 85 85 83 83 83 83 83 83 84 88 93 96 100 101 101 102 100 96 95 97 100 102 102 102 103 101 99 99 99
83 82 80 78 75 73 71 69 67 65 63 62 60 59 58 56 56 56 56 55 55 55 59 63 68 76 85 92 98 102 103 103 102 101 100 101 101 100 99 99 99 98
67 71 74 75 75 73 70 66 62 59 56 54 52 52 54 54 53 55 55 54 53 52 52 50 49 50 54 60 68 77 86 91 94 96 97 98 99 100 100 101 101 101

ECMWFNIL_500_rhum_039.txt.gz
RH
16 14 13 12 11 9 8 7 7 7 6 7 6 7 7 7 7 6 6 6 6 6 6 6 6 7 7 7 6 5 5 4 4 4 3 3 3 4 5 6 8 10
46 42 38 36 33 30 26 21 18 17 15 16 15 15 16 15 14 14 14 13 14 14 13 12 12 13 12 11 10 10 9 9 8 7 6 6 5 4 3 3 4 4
76 73 68 65 61 57 52 47 42 39 35 33 31 27 25 25 23 22 22 21 20 19 19 19 20 19 17 15 15 14 12 11 11 10 9 9 8 8 7 6 5 4
84 83 80 77 75 71 67 62 56 54 51 49 46 39 31 29 29 28 26 26 27 28 31 34 34 31 28 28 28 25 22 20 18 17 14 11 10 9 9 9 8 7
81 80 78 76 75 74 73 71 64 59 56 56 58 54 44 35 31 32 34 35 36 39 42 43 42 39 39 43 44 40 37 36 37 37 32 26 21 16 13 11 10 9
79 76 73 70 68 66 66 69 68 65 61 58 59 61 58 51 40 34 35 39 40 41 43 45 44 43 44 49 50 48 46 49 56 61 57 50 42 34 26 20 14 12
80 78 74 70 68 64 60 59 60 61 62 63 63 63 62 61 56 45 36 35 38 40 42 45 45 44 47 51 51 51 54 61 69 75 74 70 63 53 45 36 26 19
86 86 84 79 73 68 63 59 56 55 56 58 64 68 67 63 62 59 49 38 34 37 42 43 42 44 48 52 54 62 72 76 78 80 81 80 75 67 61 55 43 32
86 86 83 80 76 71 65 61 57 56 55 55 58 66 71 68 63 61 59 50 38 35 40 41 42 47 53 59 68 81 87 83 81 83 86 85 80 73 69 64 56 48
84 81 80 80 81 81 77 71 63 55 55 59 60 64 70 74 69 61 60 59 46 35 39 44 46 52 59 68 77 83 83 79 79 85 89 89 83 75 71 66 62 60
86 82 85 88 90 93 95 94 86 70 59 60 65 70 73 76 76 68 61 61 51 38 40 47 50 55 63 72 78 77 74 72 75 83 91 91 85 76 72 68 66 66
86 84 90 95 97 100 101 103 103 93 77 68 68 74 78 80 80 73 65 65 55 41 41 47 50 57 68 78 80 75 71 73 78 86 94 94 88 81 77 75 73 74
89 89 93 97 99 101 100 100 103 103 96 87 81 83 87 89 85 76 71 70 57 44 43 47 52 62 75 83 82 79 80 84 87 92 98 99 94 87 84 83 83 84
98 95 94 96 99 100 100 99 100 104 106 103 98 99 100 98 89 80 79 74 58 47 47 50 59 72 84 88 89 90 93 94 93 95 100 104 100 92 89 90 91 93
99 96 94 97 100 100 100 100 99 101 104 102 103 105 105 99 91 87 86 75 58 50 52 58 71 86 96 98 97 97 97 98 98 98 102 106 103 95 91 94 96 99
100 99 98 99 101 100 99 100 100 100 100 101 103 106 103 99 96 92 83 69 58 55 60 71 86 96 101 102 100 98 98 101 103 103 104 107 104 96 93 95 99 101
101 100 100 100 100 100 100 100 100 100 100 100 102 105 105 102 95 86 74 64 61 64 72 83 93 98 100 102 103 103 103 103 105 106 107 106 103 96 93 96 100 103
101 102 101 101 100 100 99 99 100 100 100 100 100 103 106 101 90 78 70 67 68 73 79 86 90 93 95 98 103 105 105 103 104 106 106 105 103 98 93 96 100 103
88 93 97 99 100 101 101 101 101 100 100 102 102 103 103 99 89 81 76 73 74 76 78 80 81 83 86 91 97 101 101 100 99 101 104 104 103 98 94 95 99 101
72 74 78 83 87 91 95 99 102 102 102 103 104 103 102 99 95 91 88 85 83 81 80 78 76 76 81 88 95 97 98 99 96 95 100 104 104 101 97 94 93 95
71 67 67 69 70 70 72 75 78 84 89 93 97 99 101 102 102 102 100 99 97 95 92 89 87 86 87 90 92 91 91 94 93 92 96 102 105 104 102 96 90 88
81 76 71 69 67 63 59 55 52 53 56 60 65 70 75 82 87 92 97 100 102 103 102 100 98 96 95 93 92 90 89 90 90 89 92 99 104 106 106 102 94 91
83 75 67 62 58 55 52 48 47 47 47 47 47 47 48 50 53 57 63 69 77 83 88 91 94 95 96 96 96 97 97 95 93 91 90 93 98 101 104 105 100 98
72 61 55 52 48 46 45 45 46 47 49 51 52 51 50 49 48 47 45 46 48 51 54 59 65 71 78 87 94 99 102 101 99 96 94 94 95 96 98 103 105 105
58 48 45 46 47 48 49 48 48 50 52 55 58 60 62 62 62 61 59 57 54 51 49 45 43 44 47 54 67 80 90 98 101 100 98 96 95 96 95 98 103 106
54 49 52 58 64 70 72 72 72 73 75 75 77 80 79 75 72 67 62 61 60 59 60 59 56 54 48 40 39 46 58 74 87 96 100 100 99 99 99 100 104 107

ECMWFNIL_500_rhum_042.txt.gz
RH
74 73 73 71 71 72 69 65 63 58 51 43 32 19 11 7 6 6 5 5 4 4 3 3 4 4 5 6 7 9 11 13 16 19 23 26 31 35 39 44 48 52
73 73 72 69 68 69 68 67 68 68 65 61 55 46 32 20 12 8 7 6 6 6 5 4 4 4 3 4 4 4 4 5 6 8 9 11 13 16 19 23 26 31
76 74 72 69 67 64 63 61 62 65 67 67 64 61 55 44 32 21 14 10 8 6 6 6 5 5 5 5 4 5 4 4 4 4 5 5 6 6 8 9 12 15
76 74 72 70 67 65 63 60 57 56 60 65 65 64 63 61 55 43 29 20 17 13 9 8 6 5 5 5 5 5 5 5 5 4 4 4 4 4 4 5 5 7
74 75 76 75 74 71 69 66 62 57 54 57 61 64 64 64 63 59 46 30 25 24 21 17 14 12 10 9 9 8 7 7 7 7 7 6 6 5 5 5 5 4
74 76 78 77 74 71 69 67 63 60 56 54 55 58 62 64 63 63 56 42 30 28 28 25 23 21 19 17 16 15 14 14 14 14 14 13 12 11 10 9 8 8
75 74 74 73 71 70 71 71 67 62 58 56 55 55 57 62 63 61 58 52 41 31 29 29 29 29 28 27 24 24 27 30 30 29 26 25 25 24 21 19 16 14
77 78 78 76 75 75 78 81 80 75 67 61 57 56 56 59 62 62 57 54 51 42 33 30 33 36 36 35 34 36 41 45 45 42 40 42 45 44 41 36 31 27
84 85 84 81 80 80 84 89 90 88 84 77 66 59 58 59 61 63 59 54 53 51 43 34 33 37 39 37 38 40 44 48 51 51 52 55 57 59 58 52 46 41
90 88 87 87 87 87 90 93 94 94 97 96 84 66 60 63 64 63 61 57 54 54 53 46 37 34 36 37 37 39 43 48 51 53 53 55 59 64 65 63 57 50
94 96 97 96 95 93 93 95 97 97 99 103 99 79 64 66 69 66 64 64 62 59 58 58 49 38 36 38 37 39 44 49 51 51 51 54 60 67 71 73 71 64
97 103 103 99 97 97 96 97 99 100 99 100 103 94 80 76 77 77 76 74 73 70 66 69 63 47 37 37 37 41 50 55 55 55 57 62 68 73 77 82 83 78
96 101 103 101 98 97 98 98 98 101 100 99 101 100 97 94 93 94 93 89 89 87 81 80 71 51 38 38 40 46 55 61 63 65 70 76 81 83 86 89 92 90
98 98 101 102 102 100 99 99 99 100 100 100 100 100 100 101 100 102 102 102 103 99 91 85 70 49 39 40 44 53 63 68 73 77 81 85 88 90 91 92 95 96
94 97 100 102 104 105 102 100 100 101 100 100 100 100 101 102 103 103 102 102 100 95 89 79 62 46 42 45 51 63 73 79 82 84 85 89 94 97 98 97 97 98
75 81 88 95 101 105 104 103 101 100 101 101 100 100 100 103 105 105 102 100 97 92 83 68 53 46 47 53 62 74 82 87 88 88 90 97 103 104 104 102 99 100
63 62 65 71 79 86 93 100 103 103 103 103 103 103 102 103 105 102 98 95 91 83 72 60 53 53 56 62 73 82 89 93 94 94 96 102 106 106 103 100 97 99
60 57 54 54 54 57 62 71 82 91 97 102 105 107 105 103 100 94 88 83 78 72 66 61 59 61 66 75 83 88 94 97 97 98 99 103 106 104 102 99 96 98
51 51 50 50 48 47 47 48 52 58 67 77 87 95 101 103 102 97 90 83 77 73 70 69 70 72 76 81 86 90 92 93 94 96 97 98 100 100 101 101 101 102
43 43 43 44 44 46 48 49 49 49 48 50 54 60 69 79 88 95 97 97 94 89 84 79 77 76 78 80 81 83 84 84 86 91 95 96 95 95 98 103 105 106
40 46 48 48 47 48 48 50 52 54 54 53 51 49 49 51 55 61 69 79 87 93 96 97 94 89 85 81 79 77 76 78 81 87 92 95 96 94 94 100 106 107
52 62 67 68 67 67 67 66 65 65 65 64 60 56 54 52 51 49 48 50 54 61 70 79 88 95 97 95 92 88 84 83 84 88 89 89 91 93 92 95 103 106
65 71 74 78 81 86 89 91 90 88 86 84 78 70 63 59 56 53 50 49 48 47 48 50 53 60 69 78 85 89 90 89 87 86 86 85 87 90 90 94 100 105
66 67 71 76 83 89 94 96 97 97 96 97 97 94 87 78 69 60 52 51 53 54 55 55 52 49 46 48 52 59 70 78 83 85 87 88 91 92 91 93 97 103
58 60 63 70 78 84 87 87 88 91 92 93 94 96 95 88 81 74 63 52 51 59 63 65 68 69 65 57 48 42 44 53 65 77 86 91 94 95 94 94 96 101
50 52 56 65 75 83 85 83 82 83 84 83 83 86 91 91 87 84 76 60 53 61 70 73 75 78 80 78 68 50 38 39 46 56 72 87 94 95 95 95 96 98

ECMWFNIL_500_rhum_045.txt.gz
RH
58 61 62 63 61 60 57 56 54 52 50 49 48 48 48 47 45 44 44 42 35 22 11 5 4 4 4 4 6 11 18 27 38 48 57 65 73 80 85 88 87 85
57 61 62 62 60 59 58 57 56 55 53 52 50 49 48 48 47 46 46 48 47 41 28 15 7 4 4 4 4 3 5 8 14 22 32 42 52 60 67 74 80 84
58 61 61 60 60 61 62 62 60 57 54 52 51 50 50 50 50 48 48 49 49 47 41 29 17 10 5 4 4 4 3 3 4 6 11 18 27 37 45 54 61 67
58 61 62 63 65 65 65 63 60 58 56 55 53 51 50 51 53 52 50 51 51 49 45 39 30 20 13 7 4 5 4 4 4 3 4 5 9 15 23 32 41 48
61 64 66 67 67 66 65 64 63 62 61 62 63 61 56 53 54 56 55 53 52 51 48 44 39 29 21 15 9 6 5 5 5 4 4 4 3 5 7 12 20 28
65 67 68 69 67 67 69 70 70 69 68 70 72 73 70 63 56 56 58 56 54 53 49 47 44 34 27 24 18 11 8 6 6 5 4 4 4 3 4 4 7 11
70 70 69 69 68 70 74 76 76 77 78 79 80 80 80 77 67 58 59 59 55 54 51 49 49 39 29 27 25 20 16 10 8 7 6 6 6 4 4 4 4 4
76 75 74 72 69 72 79 83 84 88 89 88 87 87 88 89 79 64 61 61 58 55 51 49 51 44 31 29 29 26 24 20 16 13 10 8 8 7 6 6 5 4
82 81 79 78 76 77 82 86 89 94 97 96 94 95 97 100 90 71 64 64 60 57 53 50 53 48 36 32 36 36 36 37 34 30 27 22 18 15 12 10 8 7
81 86 85 84 84 83 83 87 92 97 100 100 99 99 101 104 95 76 69 69 65 60 58 55 56 56 44 35 40 45 45 47 49 48 47 45 42 39 35 31 27 23
65 79 86 88 89 88 86 87 92 98 100 100 100 99 100 104 99 85 77 77 74 69 67 65 64 65 56 42 40 46 45 45 50 53 56 57 57 57 55 51 46 42
48 57 66 76 84 89 92 93 94 99 101 101 101 100 99 101 102 98 93 90 87 80 76 76 75 76 72 56 43 44 46 44 47 51 54 58 60 61 62 61 59 56
44 42 44 50 59 68 79 88 95 100 102 102 101 100 101 101 100 100 100 99 99 96 90 89 88 87 85 70 50 42 44 44 47 51 55 59 64 68 73 77 79 79
44 43 42 41 42 45 52 61 72 83 93 100 102 99 99 102 102 103 103 101 100 100 99 101 101 95 88 77 57 42 40 43 47 53 59 65 72 78 84 89 92 92
42 43 44 45 46 46 45 46 48 54 65 77 89 96 97 97 98 100 103 105 105 104 102 103 104 99 90 78 59 42 39 44 50 58 65 73 80 86 89 90 90 91
42 43 43 45 46 48 49 50 49 48 48 51 60 72 83 91 94 92 91 92 96 101 103 102 98 91 82 68 52 43 44 48 55 64 72 79 85 87 88 88 88 90
51 53 54 54 53 53 53 53 54 54 52 49 48 50 56 66 78 84 86 85 83 81 83 84 81 74 65 55 48 47 52 56 63 71 76 80 83 85 87 90 93 95
55 59 63 66 68 68 67 66 66 65 61 56 53 49 46 47 51 59 69 77 83 83 78 73 68 64 59 57 56 57 60 65 71 78 81 83 84 86 89 92 95 98
50 54 59 66 71 75 77 78 79 80 80 77 70 62 55 50 46 45 47 52 60 71 80 83 81 77 71 66 65 66 69 73 77 80 82 84 85 86 89 92 95 97
43 46 51 59 67 73 78 82 85 87 89 92 91 87 81 74 63 51 46 47 47 47 53 63 74 83 87 85 80 75 72 73 76 78 79 80 81 83 86 89 93 95
36 40 43 51 61 69 75 82 88 91 92 95 99 103 102 98 88 70 53 48 52 54 51 48 49 56 68 79 87 89 87 82 78 75 74 73 73 75 78 84 89 92
32 36 40 47 57 63 68 73 79 82 84 88 95 103 107 101 93 81 63 51 52 58 60 59 55 49 47 50 58 69 80 88 90 87 82 77 72 71 73 79 85 88
33 36 40 48 58 62 63 64 67 70 71 71 74 84 95 96 84 69 57 51 55 60 62 63 66 67 62 55 48 46 49 58 70 81 85 85 82 77 75 77 80 82
34 37 39 45 56 66 69 66 66 67 67 65 62 61 67 76 79 72 60 52 51 57 65 68 70 73 74 73 67 59 51 44 44 51 63 72 79 80 78 76 75 75
32 35 37 39 45 56 65 69 69 69 68 66 62 57 52 52 59 70 79 79 66 56 58 66 73 76 77 77 77 75 71 59 44 38 42 51 62 73 77 77 77 79
31 32 34 36 38 40 45 52 58 63 67 68 66 63 60 54 48 49 63 79 82 75 69 67 70 77 81 83 83 85 85 74 51 37 36 39 46 61 75 83 85 88

ECMWFNIL_500_rhum_048.txt.gz
RH
46 45 46 46 47 47 46 46 47 48 50 50 49 47 45 42 40 39 39 39 38 35 34 34 32 31 31 30 25 18 11 6 4 6 14 29 50 72 85 89 86 82
48 49 49 49 50 50 51 51 52 53 53 52 49 47 44 41 39 37 37 37 37 37 36 36 35 34 33 34 33 30 25 17 10 6 4 7 15 32 54 72 84 86
49 54 56 57 58 59 60 60 59 57 55 53 51 49 46 43 41 41 41 40 39 38 38 38 38 36 35 35 35 35 35 30 23 15 9 6 4 7 18 35 56 73
45 57 64 68 69 69 68 65 61 58 56 56 56 53 50 47 47 47 48 49 48 45 43 42 42 40 36 36 36 37 38 37 32 26 17 10 6 4 5 9 21 38
38 55 66 70 70 70 69 66 62 60 60 61 61 60 58 57 58 58 57 58 58 55 51 45 45 44 39 37 38 39 42 41 36 30 23 16 10 6 4 3 5 10
32 44 58 64 65 67 68 68 65 64 64 67 68 69 71 71 72 73 72 70 68 64 57 50 47 46 41 40 42 44 46 43 34 28 26 21 14 8 5 4 4 4
29 33 43 53 60 65 68 69 69 67 69 74 76 78 82 83 83 87 90 88 82 74 62 53 50 48 45 45 48 51 48 39 30 27 26 24 19 11 6 5 5 5
30 30 34 40 48 56 62 68 71 70 70 75 81 85 89 92 94 97 99 95 88 78 67 58 53 51 51 53 58 56 45 35 31 29 25 22 20 14 9 6 6 6
34 34 35 36 39 43 48 54 61 66 69 74 81 87 92 95 98 101 101 96 88 79 71 65 60 57 58 62 66 57 41 36 38 36 31 26 21 16 10 7 7 7
38 38 39 39 39 39 40 41 44 50 58 66 74 84 92 94 95 99 102 100 96 89 80 72 67 66 67 69 70 56 40 41 45 44 42 38 30 24 16 10 8 7
41 42 43 43 43 42 41 40 40 40 42 49 58 70 83 91 93 96 99 101 101 99 94 87 79 75 74 77 77 61 43 43 48 46 47 47 43 38 31 22 16 10
46 49 51 52 53 52 50 49 48 46 42 40 42 49 61 75 85 91 94 96 98 99 99 97 93 89 87 88 87 71 49 43 46 46 46 48 49 48 46 42 36 28
47 50 54 59 63 66 67 66 65 64 60 53 45 42 43 51 64 77 85 90 93 95 97 98 98 97 97 97 95 82 60 44 42 44 46 48 50 51 53 54 54 52
42 44 48 55 63 69 74 78 80 81 81 77 68 57 48 42 44 53 65 76 85 89 91 94 97 100 102 102 99 91 75 55 43 41 44 49 53 55 57 61 64 66
37 37 39 44 51 59 65 72 77 80 84 89 88 82 72 60 48 43 46 54 65 75 81 86 89 92 97 100 99 95 84 65 49 43 45 50 56 62 66 70 74 76
31 31 33 36 42 48 52 58 65 72 79 87 93 94 89 80 66 53 45 43 47 55 64 72 78 79 79 80 81 80 72 59 47 45 50 56 62 69 75 80 85 87
25 26 27 30 37 45 50 53 59 67 74 82 91 95 95 88 73 59 52 48 46 47 50 56 64 71 73 70 65 61 56 52 51 51 56 63 70 77 84 89 92 94
22 24 26 27 32 43 53 58 62 66 70 73 79 86 92 91 74 54 45 47 51 53 52 50 51 56 64 70 71 68 62 58 58 61 67 73 80 86 92 97 100 102
23 23 26 28 29 37 51 62 65 66 67 66 64 65 72 82 79 62 46 41 46 52 57 59 56 51 51 55 63 71 77 76 72 70 73 79 86 93 99 102 104 106
24 24 25 28 30 33 43 56 63 64 64 64 60 55 53 58 67 70 63 54 49 49 52 59 65 65 59 54 53 55 64 75 83 84 81 80 82 88 95 100 102 103
22 25 26 27 29 31 37 47 55 60 62 63 62 60 56 52 51 55 59 61 62 60 56 55 61 68 69 67 63 58 53 54 63 76 84 86 85 83 83 87 91 94
28 23 25 29 30 31 34 40 46 52 57 62 64 65 65 63 59 54 51 51 54 62 67 66 64 67 70 72 72 71 68 60 52 53 60 70 81 86 85 81 79 80
49 34 25 26 30 32 34 37 42 45 47 52 58 63 67 67 67 65 62 57 50 49 57 67 74 75 75 76 79 80 80 80 75 66 57 52 57 69 81 86 81 76
61 58 42 28 25 29 33 36 40 44 45 44 46 51 59 64 66 66 65 66 63 54 48 51 65 78 81 80 84 88 91 91 89 85 77 61 48 47 57 72 81 80
44 64 67 53 35 27 26 30 37 41 43 44 43 43 47 55 61 64 62 62 64 63 57 49 48 60 76 83 83 88 97 100 95 92 88 69 50 42 42 50 64 73
20 43 67 77 67 49 33 26 29 34 38 39 39 40 42 45 52 58 61 60 58 58 60 58 49 45 55 73 82 84 91 98 96 96 92 67 44 41 43 40 47 60

ECMWFNIL_500_rhum_054.txt.gz
RH
15 16 16 15 14 13 12 13 18 26 33 38 40 41 42 42 42 41 40 38 36 35 33 32 30 29 27 26 25 24 24 24 24 24 23 20 18 17 21 30 41 53
15 17 18 17 15 15 14 14 15 19 25 31 37 40 42 42 43 42 42 42 41 40 39 37 34 32 29 26 24 22 22 21 21 22 22 22 22 20 18 17 20 27
14 17 19 19 17 16 16 16 16 18 19 22 26 31 35 40 42 44 46 47 47 47 46 44 41 39 36 33 30 26 23 21 19 19 20 21 21 22 21 20 18 16
13 17 19 20 19 17 17 17 17 18 20 21 22 23 25 30 34 40 44 48 50 52 52 50 47 47 47 43 40 36 32 28 24 20 18 19 20 22 23 23 22 20
10 15 19 20 20 19 18 18 17 18 19 22 24 25 24 24 25 29 34 39 46 52 56 56 54 54 56 53 46 42 42 40 35 29 23 21 20 21 23 24 25 25
8 13 17 20 21 21 20 19 19 18 19 20 22 24 24 22 22 23 26 29 35 45 55 61 61 61 65 63 54 49 50 51 50 45 37 31 26 24 25 25 26 27
6 9 15 19 21 22 21 20 20 20 20 20 20 21 22 22 21 21 22 25 27 34 45 58 65 67 72 75 67 59 58 58 57 56 52 45 38 33 31 30 29 30
7 7 10 16 21 23 23 21 21 20 21 21 21 20 21 23 24 22 20 22 26 28 34 47 61 69 75 81 80 72 66 62 59 59 58 55 51 46 41 38 35 33
8 6 7 11 18 23 24 23 22 21 20 20 20 20 20 22 26 28 24 21 24 29 31 36 48 61 73 83 87 83 76 70 64 61 59 58 57 54 51 48 45 41
11 7 6 7 12 20 25 25 23 23 21 20 20 20 21 21 25 32 32 26 23 28 33 35 38 48 61 76 88 90 86 80 72 66 63 60 57 56 54 52 51 48
16 9 7 6 7 14 22 26 26 24 23 22 21 21 22 24 27 32 37 37 30 28 30 34 37 41 47 59 76 90 94 91 83 75 70 65 61 58 55 54 53 52
23 13 8 6 5 8 16 25 28 27 25 24 23 22 24 28 30 33 37 42 41 38 34 32 34 38 42 46 56 73 89 96 94 87 79 73 68 63 58 55 53 51
33 20 11 7 6 5 9 19 28 31 28 25 24 24 25 30 36 37 38 41 43 45 46 44 40 38 40 41 43 51 68 84 94 95 91 84 76 71 65 58 52 46
44 29 16 10 7 6 5 10 21 31 33 29 26 25 25 30 39 43 42 42 42 44 47 52 53 49 45 44 42 42 47 60 75 86 93 94 89 82 76 68 58 49
55 40 25 14 9 7 5 5 12 24 35 37 31 26 25 28 37 46 48 46 45 45 47 50 53 54 53 51 48 45 42 44 53 65 75 85 91 91 88 82 72 60
64 51 36 22 13 8 6 5 6 14 28 40 41 34 27 26 31 40 48 52 51 48 49 53 55 54 53 53 54 53 49 44 44 50 57 64 73 80 84 84 80 70
70 61 48 33 20 12 8 6 5 7 15 32 46 46 36 28 27 31 39 49 55 54 49 51 58 61 57 53 52 55 58 55 49 47 49 53 57 62 66 68 65 60
75 68 58 44 30 18 11 7 5 5 7 16 34 49 50 40 29 27 31 38 49 57 54 48 51 61 64 60 55 52 54 59 60 56 51 50 51 54 57 61 60 56
80 73 65 54 40 25 15 10 6 5 5 7 17 35 51 55 45 32 28 31 38 49 54 49 47 53 58 61 61 57 52 52 57 61 61 58 54 51 51 54 59 63
85 78 70 62 50 34 20 13 9 6 5 5 7 16 32 51 60 51 36 28 31 40 47 46 46 49 53 53 56 58 57 53 51 53 58 61 62 60 55 51 52 56
91 82 75 68 59 44 28 17 11 8 6 5 5 7 13 28 50 66 60 41 29 32 41 43 41 44 48 49 50 51 53 54 53 51 50 53 59 64 65 61 55 54
96 86 79 72 65 54 38 22 13 9 7 6 4 5 7 10 26 53 73 70 49 34 34 39 41 42 44 45 46 46 47 49 51 52 51 50 50 55 64 68 64 61
99 90 82 76 70 62 48 30 17 11 8 7 5 4 5 6 11 28 56 80 82 63 43 35 35 38 43 44 43 42 44 45 46 47 50 51 48 46 53 65 68 65
102 94 85 79 74 68 58 41 24 14 9 7 6 5 5 5 7 13 29 59 87 95 81 61 45 37 35 36 37 38 39 40 41 41 43 46 48 44 43 55 67 68
104 97 88 82 77 72 66 52 33 19 12 9 7 6 5 4 4 7 14 31 60 87 99 97 85 70 55 43 36 33 33 35 36 37 38 39 43 42 38 48 66 72
105 102 92 85 81 77 72 62 45 26 15 11 8 6 6 5 4 4 7 15 35 61 85 100 104 100 91 79 64 48 38 34 32 33 35 36 39 39 35 44 64 75